Red Oak
Sunday 1:35 PM
Temperature72° (72°/59°)
Dew Point57°
Relative Humidity60
%
Visibility10
mi
Pressure1023.7
mb
Wind DirectionSSE
160°
Wind Speed16
mph
Precipitation Today0.00"

Last 30 Observations

Time PresWx Temp DP Feels RH% Vsby Pressure Ceiling Direction Speed 1h Precip
1:35 PM 72° 57° 60
%
10
mi
1023.7
mb
SSE
160°
16
mph
0.00"
1:15 PM 70° 57° 64
%
10
mi
1024.1
mb
SSE
150°
17
mph
0.00"
12:55 PM 70° 59° 69
%
10
mi
1024.4
mb
SSE
150°
20
mph
0.00"
12:35 PM 70° 59° 69
%
10
mi
1024.4
mb
SSE
150°
18
mph
0.00"
12:15 PM 68° 59° 73
%
10
mi
1024.7
mb
8,000
ft
SSE
150°
15
mph
0.00"
11:55 AM 66° 59° 78
%
10
mi
1024.7
mb
8,000
ft
SSE
160°
14
mph
0.00"
11:35 AM 64° 57° 77
%
10
mi
1025.1
mb
7,500
ft
SSE
160°
10
mph
0.00"
11:15 AM 63° 57° 83
%
10
mi
1025.4
mb
7,500
ft
SSE
150°
9
mph
0.00"
10:55 AM 63° 57° 83
%
10
mi
1025.4
mb
7,500
ft
S
170°
13
mph
0.00"
10:35 AM 63° 57° 83
%
10
mi
1025.4
mb
7,500
ft
SE
140°
8
mph
0.00"
10:15 AM 63° 57° 83
%
10
mi
1025.4
mb
7,500
ft
SE
140°
11
mph
0.00"
9:55 AM 61° 57° 88
%
10
mi
1025.4
mb
7,500
ft
SSE
160°
8
mph
0.00"
9:35 AM 61° 57° 88
%
10
mi
1025.4
mb
7,500
ft
SSE
160°
8
mph
0.00"
9:15 AM 61° 57° 88
%
10
mi
1025.1
mb
7,000
ft
SE
130°
7
mph
0.00"
8:55 AM 61° 55° 82
%
10
mi
1025.1
mb
7,000
ft
SSE
150°
8
mph
0.00"
8:35 AM 61° 55° 82
%
10
mi
1025.1
mb
7,000
ft
SSE
150°
7
mph
0.00"
8:15 AM 61° 55° 82
%
10
mi
1024.7
mb
7,500
ft
SE
140°
7
mph
0.00"
7:55 AM 61° 55° 82
%
10
mi
1025.1
mb
7,500
ft
ESE
110°
7
mph
0.00"
7:35 AM 61° 55° 82
%
10
mi
1024.7
mb
7,500
ft
SSE
150°
6
mph
0.00"
7:15 AM 61° 55° 82
%
10
mi
1024.7
mb
8,500
ft
SE
130°
6
mph
0.00"
6:55 AM 61° 55° 82
%
10
mi
1024.7
mb
5,500
ft
SE
140°
3
mph
0.00"
6:35 AM 61° 55° 82
%
10
mi
1024.7
mb
5,500
ft
Calm 0.00"
6:15 AM 61° 55° 82
%
10
mi
1024.1
mb
5,500
ft
SE
140°
5
mph
0.00"
5:55 AM 61° 55° 82
%
10
mi
1024.1
mb
6,000
ft
E
100°
3
mph
0.00"
5:35 AM 61° 55° 82
%
10
mi
1024.1
mb
6,000
ft
Calm 0.00"
5:15 AM 61° 55° 82
%
10
mi
1023.7
mb
6,000
ft
Calm 0.00"
4:55 AM 61° 55° 82
%
10
mi
1023.7
mb
6,000
ft
Calm 0.00"
4:35 AM 61° 55° 82
%
10
mi
1023.7
mb
6,000
ft
Calm 0.00"
4:15 AM 59° 55° 88
%
10
mi
1023.7
mb
6,000
ft
Calm 0.00"
3:55 AM 59° 55° 88
%
10
mi
1023.7
mb
6,000
ft
NE
40°
5
mph
0.00"